This is the latest recevied weather packets stored in our database for station/object SA7AHC. If no packets are shown the sender has not sent any weather packets the latest 10 day(s).
| Time | Temp. | Humidity | Pressure | Rain* | Wind** | Luminosity | Snow |
|---|---|---|---|---|---|---|---|
| 1777706563 | 15.56° C | 54% | 1020.7 hPa | 0 mm | - | 490 W/m² | - |
| 1777705958 | 15° C | 54% | 1020.7 hPa | 0 mm | - | 466 W/m² | - |
| 1777705353 | 15° C | 55% | 1020.7 hPa | 0 mm | - | 445 W/m² | - |
| 1777704755 | 14.44° C | 57% | 1020.7 hPa | 0 mm | - | 422 W/m² | - |
| 1777704152 | 13.89° C | 57% | 1020.7 hPa | 0 mm | - | 396 W/m² | - |
| 1777703554 | 13.33° C | 59% | 1020.7 hPa | 0 mm | - | 341 W/m² | - |
| 1777702950 | 12.78° C | 59% | 1020.9 hPa | 0 mm | - | 229 W/m² | - |
| 1777702352 | 12.22° C | 60% | 1020.8 hPa | 0 mm | - | 274 W/m² | - |
| 1777701756 | 11.67° C | 61% | 1020.9 hPa | 0 mm | - | 237 W/m² | - |
| 1777701148 | 11.67° C | 62% | 1020.9 hPa | 0 mm | - | 35 W/m² | - |
| 1777700544 | 11.11° C | 63% | 1020.9 hPa | 0 mm | - | 33 W/m² | - |
| 1777699941 | 10.56° C | 64% | 1020.7 hPa | 0 mm | - | 33 W/m² | - |
| 1777699342 | 10° C | 65% | 1020.9 hPa | 0 mm | - | 32 W/m² | - |
| 1777698742 | 9.44° C | 66% | 1020.8 hPa | 0 mm | - | 30 W/m² | - |
| 1777698146 | 8.89° C | 70% | 1021 hPa | 0 mm | - | 28 W/m² | - |
| 1777697546 | 8.33° C | 72% | 1021 hPa | 0 mm | - | 26 W/m² | - |
| 1777696941 | 7.22° C | 74% | 1020.9 hPa | 0 mm | - | 25 W/m² | - |
| 1777696342 | 7.22° C | 74% | 1020.8 hPa | 0 mm | - | 23 W/m² | - |
| 1777695740 | 6.67° C | 75% | 1020.7 hPa | 0 mm | - | 21 W/m² | - |
| 1777695139 | 6.67° C | 74% | 1020.7 hPa | 0 mm | - | 18 W/m² | - |
| 1777694536 | 6.67° C | 73% | 1020.9 hPa | 0 mm | - | 16 W/m² | - |
| 1777693938 | 6.67° C | 74% | 1020.9 hPa | 0 mm | - | 14 W/m² | - |
| 1777693339 | 6.11° C | 74% | 1020.9 hPa | 0 mm | - | 11 W/m² | - |
| 1777692733 | 6.11° C | 74% | 1020.8 hPa | 0 mm | - | 9 W/m² | - |
| 1777692135 | 6.11° C | 73% | 1021.1 hPa | 0 mm | - | 7 W/m² | - |
* Rain latest hour (hover to see other rain measurements)
** Current wind speed in m/s (hover to see current wind gust speed)